Upernavik

KL  EN  DA
ASIAQ
Weather Now GREENLAND SURVEY
Updated [WGT/WGST] Temperature [°C] Wind [m/s] Air pressure [hPa] Relative humidity [%] Precipitation [mm]
Present Wind chill Speed Max
30.11 17:00n/an/a3,4 ⇙4,3992n/an/a
30.11 16:00-12,9-19,73,6 ⇙4,699371n/a
30.11 15:00-12,8-18,32,6 ⇙3,899371n/a
30.11 14:00-12,8-19,23,3 ⇙4,799470n/a
30.11 13:00-12,5-19,23,6 ⇓6,299468n/a
30.11 12:00-12,5-18,93,3 ⇙4,599565n/a
30.11 11:00-12,3-19,64,2 ⇙6,299564n/a
30.11 10:00-12,0-18,93,9 ⇓5,699668n/a
30.11 09:00-12,1-19,94,9 ⇙7,399667n/a
30.11 08:00-11,7-19,44,8 ⇓6,599664n/a
30.11 07:00-11,7-20,15,8 ⇓7,899658n/a
30.11 06:00-11,6-19,75,4 ⇓7,799657n/a
30.11 05:00-11,4-20,46,7 ⇓8,099658n/a
30.11 04:00-11,3-20,26,6 ⇙8,599648n/a
30.11 03:00-11,3-19,96,2 ⇙8,199547n/a
30.11 02:00-11,1-19,35,6 ⇙7,199553n/a
30.11 01:00-10,9-18,54,9 ⇙6,399549n/a
30.11 00:00-10,8-18,45,0 ⇙6,599551n/a
29.11 23:00-10,8-17,94,4 ⇙6,599555n/a
29.11 22:00-10,6-19,77,3 ⇓8,999554n/a
29.11 21:00-10,6-18,04,8 ⇙7,599454n/a
29.11 20:00-10,6-17,84,6 ⇙5,999457n/a
29.11 19:00-10,5-17,03,9 ⇙5,799455n/a
29.11 18:00-10,4-18,45,6 ⇙6,899346n/a
29.11 17:00-10,8-18,44,9 ⇙6,099357n/a
Position: (72.783333333,-56.133333333)

[Back]